Fort Loudoun Lake Weather Center

Moon Phase Calendar



Fort Loudoun Lake Water Level
Online Cameras

 


      

Current Conditions in Louisville
9/29/2022 1:42:27 AM

50°F
Feels Like 48
Clear
Humidity
77%
Pressure
30.3"
Wind
10.4 mph (NE)
Dew Point
43°F
UV Index
0/10 (Low)
Visibility
6 mi

Hourly Forecast

Date & Time Thu, Sep 29
1:00 AM
Thu, Sep 29
2:00 AM
Thu, Sep 29
3:00 AM
Thu, Sep 29
4:00 AM
Thu, Sep 29
5:00 AM
Thu, Sep 29
6:00 AM
Thu, Sep 29
7:00 AM
Thu, Sep 29
8:00 AM
Thu, Sep 29
9:00 AM
Thu, Sep 29
10:00 AM
Thu, Sep 29
11:00 AM
Thu, Sep 29
12:00 PM
Thu, Sep 29
1:00 PM
Thu, Sep 29
2:00 PM
Thu, Sep 29
3:00 PM
Thu, Sep 29
4:00 PM
Thu, Sep 29
5:00 PM
Thu, Sep 29
6:00 PM
Thu, Sep 29
7:00 PM
Thu, Sep 29
8:00 PM
Thu, Sep 29
9:00 PM
Thu, Sep 29
10:00 PM
Thu, Sep 29
11:00 PM
Fri, Sep 30
12:00 AM
Fri, Sep 30
1:00 AM
Fri, Sep 30
2:00 AM
Fri, Sep 30
3:00 AM
Fri, Sep 30
4:00 AM
Fri, Sep 30
5:00 AM
Fri, Sep 30
6:00 AM
Fri, Sep 30
7:00 AM
Fri, Sep 30
8:00 AM
Fri, Sep 30
9:00 AM
Fri, Sep 30
10:00 AM
Fri, Sep 30
11:00 AM
Fri, Sep 30
12:00 PM
Fri, Sep 30
1:00 PM
Fri, Sep 30
2:00 PM
Fri, Sep 30
3:00 PM
Fri, Sep 30
4:00 PM
Fri, Sep 30
5:00 PM
Fri, Sep 30
6:00 PM
Fri, Sep 30
7:00 PM
Fri, Sep 30
8:00 PM
Fri, Sep 30
9:00 PM
Fri, Sep 30
10:00 PM
Fri, Sep 30
11:00 PM
Sat, Oct 1
12:00 AM
Condition
Clear

Clear

Clear

Clear

Clear

Clear

Clear

Clear

Clear

Clear

Clear

Clear

Clear

Clear

Clear

Clear

Clear

Clear

Clear

Clear

Clear

Clear

Clear

Clear

Clear

Clear

Clear

Clear

Clear

Clear

Clear

Clear

Clear

Clear

Clear

Clouds

Clouds

Clouds

Clouds

Clouds

Clouds

Clouds

Clouds

Clouds

Clouds

Clouds

Clouds

Clouds
Temperature 50°F50°F50°F48°F47°F45°F44°F44°F48°F54°F59°F64°F68°F71°F72°F73°F73°F72°F67°F61°F58°F56°F54°F53°F51°F50°F48°F47°F47°F46°F45°F45°F50°F56°F62°F66°F68°F67°F67°F68°F68°F66°F64°F62°F62°F60°F60°F59°F
Feels Like 46°F48°F46°F44°F43°F41°F39°F39°F44°F52°F57°F62°F66°F69°F71°F72°F72°F70°F65°F59°F57°F54°F52°F51°F50°F48°F46°F45°F44°F42°F42°F42°F48°F54°F60°F64°F67°F65°F66°F66°F66°F64°F62°F61°F60°F59°F58°F57°F
Cloudiness 0%0%0%0%0%0%0%0%0%0%0%0%0%0%0%0%0%0%0%0%0%0%0%0%0%0%0%0%0%0%0%0%0%0%0%23%38%49%100%100%100%100%100%100%100%100%100%100%
Visibility 6 mi6 mi6 mi6 mi6 mi6 mi6 mi6 mi6 mi6 mi6 mi6 mi6 mi6 mi6 mi6 mi6 mi6 mi6 mi6 mi6 mi6 mi6 mi6 mi6 mi6 mi6 mi6 mi6 mi6 mi6 mi6 mi6 mi6 mi6 mi6 mi6 mi6 mi6 mi6 mi6 mi6 mi6 mi6 mi6 mi6 mi6 mi6 mi
Precipitation 0%0%0%0%0%0%0%0%0%0%0%0%0%0%0%0%0%0%0%0%0%0%0%0%0%0%0%0%0%0%0%0%0%0%0%0%0%0%0%0%0%0%0%0%0%5%5%5%
Humidity 76%77%78%80%82%85%87%86%75%63%51%42%35%32%30%30%30%34%42%51%57%62%67%69%73%76%80%82%83%83%84%83%70%57%46%39%37%40%42%44%46%49%50%50%53%56%56%56%
Dew Point 43°F43°F43°F43°F42°F41°F40°F40°F41°F41°F42°F41°F40°F39°F40°F40°F40°F42°F43°F43°F43°F43°F43°F43°F43°F43°F42°F42°F41°F41°F40°F40°F41°F41°F41°F40°F41°F42°F43°F45°F46°F46°F45°F44°F44°F44°F44°F43°F
Pressure 30.3"30.3"30.3"30.3"30.3"30.33"30.33"30.33"30.33"30.3"30.3"30.27"30.24"30.21"30.18"30.15"30.12"30.12"30.12"30.15"30.15"30.18"30.18"30.15"30.15"30.15"30.15"30.15"30.15"30.15"30.15"30.15"30.15"30.12"30.12"30.06"30.06"30.03"30"29.97"29.97"29.94"29.94"29.94"29.94"29.91"29.91"29.91"
Wind Speed 9.1 mph9.4 mph9.2 mph9 mph8.8 mph8.6 mph8.5 mph8.7 mph10.7 mph12.7 mph13.7 mph14 mph14.1 mph13.9 mph13.4 mph13.2 mph11.8 mph10.5 mph8.7 mph7.4 mph7.4 mph6.7 mph6.7 mph6.8 mph6.8 mph6.5 mph6 mph6 mph6 mph6.2 mph6.1 mph6.7 mph8.5 mph10 mph10.5 mph10.8 mph11.5 mph12.1 mph11.7 mph11.6 mph11 mph10.8 mph11.4 mph10.7 mph11.4 mph10.8 mph9.8 mph10.3 mph
Wind
Direction
46°
NE
45°
NE
48°
NE
48°
NE
49°
NE
51°
NE
47°
NE
46°
NE
49°
NE
53°
NE
52°
NE
56°
NE
59°
ENE
58°
ENE
56°
NE
53°
NE
49°
NE
38°
NE
28°
NNE
26°
NNE
35°
NE
37°
NE
37°
NE
45°
NE
45°
NE
46°
NE
43°
NE
45°
NE
46°
NE
41°
NE
47°
NE
39°
NE
42°
NE
49°
NE
48°
NE
45°
NE
52°
NE
57°
ENE
48°
NE
49°
NE
42°
NE
36°
NE
34°
NE
38°
NE
39°
NE
34°
NE
39°
NE
35°
NE

Daily Forecast

Date High Low Precip. Humidity
Today
Sep 29

Clear
73 °F
44 °F
0%
35%
Friday
Sep 30

Clouds
68 °F
45 °F
5%
37%
Saturday
Oct 1

Rain
57 °F
52 °F
100%
96%
Sunday
Oct 2

Rain
57 °F
55 °F
82%
96%
Monday
Oct 3

Rain
70 °F
55 °F
28%
69%
Tuesday
Oct 4

Clouds
73 °F
53 °F
35%
52%
Wednesday
Oct 5

Clouds
75 °F
57 °F
6%
41%
Thursday
Oct 6

Rain
76 °F
54 °F
41%
43%
Friday
Oct 7

Rain
78 °F
55 °F
42%
44%
Saturday
Oct 8

Clear
66 °F
44 °F
0%
32%
Sunday
Oct 9

Clear
77 °F
46 °F
0%
28%
Monday
Oct 10

Clear
83 °F
54 °F
0%
38%
Tuesday
Oct 11

Rain
73 °F
55 °F
100%
90%
Wednesday
Oct 12

Clear
58 °F
42 °F
55%
30%
Thursday
Oct 13

Clear
63 °F
38 °F
0%
26%
Friday
Oct 14

Clouds
70 °F
45 °F
0%
39%

Temperature 8-14 Day Outlook



Precipitation 8-14 Day Outlook




Quick Links
Fort Loudoun Lake News
Fort Loudoun Lake Photos
Fort Loudoun Lake Videos




About Us
Contact Us
Site Map
Search Site
Advertise With Us
   
www.FortLoudoun.info
THE FORT LOUDOUN LAKE WEBSITE

Copyright 2022, Lakes Online
Privacy    |    Legal